This is the latest recevied weather packets stored in our database for station/object OE5HCE. If no packets are shown the sender has not sent any weather packets the latest 10 day(s).
| Time | Temp. | Humidity | Pressure | Rain* | Wind** | Luminosity | Snow |
|---|---|---|---|---|---|---|---|
| 1788018356 | 26.11° C | 50% | 1016.4 hPa | 0 mm | - | 102 W/m² | - |
| 1788017445 | 26.11° C | 49% | 1016.4 hPa | 0 mm | - | 223 W/m² | - |
| 1788016545 | 25° C | 57% | 1016.4 hPa | 0 mm | - | 229 W/m² | - |
| 1788015644 | 25° C | 52% | 1016.4 hPa | 0 mm | - | 76 W/m² | - |
| 1788014744 | 26.67° C | 54% | 1016.5 hPa | 0 mm | - | 478 W/m² | - |
| 1788013842 | 25° C | 50% | 1016.6 hPa | 0 mm | - | 139 W/m² | - |
| 1788012942 | 26.67° C | 47% | 1016.6 hPa | 0 mm | - | 213 W/m² | - |
| 1788012039 | 27.22° C | 48% | 1016.7 hPa | 0 mm | - | 684 W/m² | - |
| 1788011135 | 26.11° C | 49% | 1016.9 hPa | 0 mm | - | 527 W/m² | - |
| 1788010233 | 25.56° C | 54% | 1017 hPa | 0 mm | - | 726 W/m² | - |
| 1788009333 | 24.44° C | 57% | 1017.1 hPa | 0 mm | - | 190 W/m² | - |
| 1788008430 | 25° C | 53% | 1017.2 hPa | 0 mm | - | 334 W/m² | - |
| 1788007530 | 25° C | 53% | 1017.3 hPa | 0 mm | - | 260 W/m² | - |
| 1788006629 | 25° C | 51% | 1017.2 hPa | 0 mm | - | 279 W/m² | - |
| 1788005728 | 25.56° C | 52% | 1017.4 hPa | 0 mm | - | 350 W/m² | - |
| 1788004826 | 25° C | 54% | 1017.5 hPa | 0 mm | - | 731 W/m² | - |
| 1788003955 | 25° C | 55% | 1017.6 hPa | 0 mm | - | 788 W/m² | - |
| 1788003023 | 24.44° C | 55% | 1017.7 hPa | 0 mm | - | 91 W/m² | - |
| 1788002134 | 24.44° C | 53% | 1017.8 hPa | 0 mm | - | 158 W/m² | - |
| 1788001220 | 23.89° C | 54% | 1017.9 hPa | 0 mm | - | 735 W/m² | - |
| 1788000329 | 23.89° C | 56% | 1018 hPa | 0 mm | - | 761 W/m² | - |
| 1787999416 | 22.78° C | 57% | 1018.1 hPa | 0 mm | - | 679 W/m² | - |
| 1787998512 | 23.33° C | 56% | 1018.2 hPa | 0 mm | - | 810 W/m² | - |
| 1787997607 | 22.78° C | 60% | 1018.2 hPa | 0 mm | - | 775 W/m² | - |
| 1787996704 | 22.22° C | 65% | 1018.3 hPa | 0 mm | - | 710 W/m² | - |
* Rain latest hour (hover to see other rain measurements)
** Current wind speed in m/s (hover to see current wind gust speed)